Location: Laura�t
(43.9341°N, 0.2497°E)
Time: 23:03:08
(UTC+00:00)

CZ-4B R/B - Pass Details

Date: 03 March 2021
Orbit: 388 x 454 km, 97.6° (Epoch: 17 April)

Event Time Altitude Azimuth Distance (km) Brightness Sun altitude
Rises 18:39:03 0° 4° (N) 2,292 5.0 -9.6°
Reaches altitude 10° 18:41:06 10° 355° (N) 1,435 4.0 -10.0°
Maximum altitude 18:43:55 35° 288° (WNW) 657 3.0 -10.5°
Drops below altitude 10° 18:46:45 10° 220° (SW) 1,441 4.5 -11.0°
Sets 18:48:49 0° 211° (SSW) 2,303 5.4 -11.3°
